Location: Rounton
(54.4000°N, 1.3500°W)
Time: 14:10:07
(UTC+00:00)

Transit 4A - Pass Details

Date: 04 December 2021
Orbit: 864 x 981 km, 66.8° (Epoch: 18 January)

Event Time Altitude Azimuth Distance (km) Brightness Sun altitude
Rises 04:53:40 0° 316° (NW) 3,610 - -26.9°
Reaches altitude 10° 04:56:28 10° 306° (NW) 2,679 - -26.5°
Maximum altitude 05:01:47 30° 248° (WSW) 1,648 - -25.7°
Exits shadow 05:04:56 20° 204° (SSW) 2,078 9.5 -25.2°
Drops below altitude 10° 05:07:11 10° 189° (S) 2,716 10.3 -24.9°
Sets 05:10:03 0° 179° (S) 3,666 11.1 -24.5°
